METEOSAT-11 (MSG-4) (40732 NORAD) Tracking and Keplerian Element Data

This shows tracking and keplerian element data for the satellite.

Feedback or suggestion? Click here.




ElementValue
Catalog40732
NameMETEOSAT-11 (MSG-4)
Epoch Orbit2639
Epoch Day269.89077031
Epoch Year2022
RAAN72.7128
Inclination0.506
Eccentricity7.32E-05
Argument of Perigee61.5911
Mean Anonmoly191.6983
Mean Motion1.00274887
Decay Rate-2E-08
L11 40732U 15034A 22269.89077031 -.00000002 00000+0 00000+0 0 9996
L22 40732 0.5060 72.7128 0000732 61.5911 191.6983 1.00274887 26395

Live tracking and technical data element details for METEOSAT-11 (MSG-4) (NORAD 40732). METEOSAT-11 (MSG-4) can be tracked NOW for your location showing map with azimuth and elevation plus other details from your city location.

Track the satellite on the map from your city or location and see movement details for azimuth, elevation, latitude, longitude, range, height, and movement on the map or in text.







IsCatalogInMostPopularTable: catalog: 40732, numindb: 598
Update: records affected: 1



GetName: 40732 METEOSAT-11 (MSG-4)

Hit Count: updated at: Wed, 28 Sep 2022 21:56:52 GMT